Time,TemperatureF,DewpointF,PressureIn,WindDirection,WindDirectionDegrees,WindSpeedMPH,WindSpeedGustMPH,Humidity,HourlyPrecipIn,Conditions,Clouds,dailyrainin,SoftwareType,DateUTC
2013-06-28 00:11:00,69.0,67.0,-100.00,SW,220,0.0,1.0,91,0.00,,,-99.99,,2013-06-28 05:11:00,
2013-06-28 00:22:00,69.0,67.0,-100.00,SW,220,0.0,1.0,91,0.00,,,-99.99,,2013-06-28 05:22:00,
2013-06-28 00:33:00,69.0,67.0,-100.00,WNW,295,3.0,4.0,92,0.00,,,-99.99,,2013-06-28 05:33:00,
2013-06-28 00:43:00,69.0,67.0,-100.00,WNW,290,2.0,4.0,93,0.00,,,-99.99,,2013-06-28 05:43:00,
2013-06-28 00:52:00,70.0,68.0,-100.00,NW,320,2.0,4.0,92,0.00,,,-99.99,,2013-06-28 05:52:00,
2013-06-28 01:02:00,71.0,68.0,-100.00,NNW,335,3.0,6.0,90,0.00,,,-99.99,,2013-06-28 06:02:00,
2013-06-28 01:12:00,72.0,68.0,-100.00,NW,325,4.0,6.0,88,0.00,,,-99.99,,2013-06-28 06:12:00,
2013-06-28 01:22:00,72.0,68.0,-100.00,NNW,330,4.0,6.0,87,0.00,,,-99.99,,2013-06-28 06:22:00,
2013-06-28 01:33:00,71.0,67.0,-100.00,NNW,330,4.0,6.0,87,0.00,,,-99.99,,2013-06-28 06:33:00,
2013-06-28 01:52:00,70.0,67.0,-100.00,North,5,6.0,7.0,90,0.00,,,-99.99,,2013-06-28 06:52:00,
2013-06-28 02:11:00,71.0,67.0,-100.00,North,0,9.0,12.0,86,0.00,,,-99.99,,2013-06-28 07:11:00,
2013-06-28 02:33:00,70.0,67.0,-100.00,NNE,15,7.0,11.0,89,0.00,,,-99.99,,2013-06-28 07:33:00,
2013-06-28 02:42:00,70.0,67.0,-100.00,NNE,20,7.0,10.0,90,0.00,,,-99.99,,2013-06-28 07:42:00,
2013-06-28 02:52:00,69.0,67.0,-100.00,NNE,15,9.0,12.0,91,0.00,,,-99.99,,2013-06-28 07:52:00,
2013-06-28 03:01:00,70.0,67.0,-100.00,NNE,15,10.0,12.0,88,0.00,,,-99.99,,2013-06-28 08:01:00,
2013-06-28 03:11:00,70.0,66.0,-100.00,NNE,15,6.0,11.0,88,0.00,,,-99.99,,2013-06-28 08:11:00,
2013-06-28 03:33:00,69.0,66.0,-100.00,NNE,20,6.0,9.0,88,0.00,,,-99.99,,2013-06-28 08:33:00,
2013-06-28 03:43:00,69.0,65.0,-100.00,North,10,4.0,9.0,88,0.00,,,-99.99,,2013-06-28 08:43:00,
2013-06-28 03:52:00,68.0,65.0,-100.00,North,5,6.0,8.0,90,0.00,,,-99.99,,2013-06-28 08:52:00,
2013-06-28 04:11:00,67.0,65.0,-100.00,North,5,6.0,7.0,93,0.00,,,-99.99,,2013-06-28 09:11:00,
2013-06-28 04:33:00,66.0,65.0,-100.00,North,5,6.0,7.0,93,0.00,,,-99.99,,2013-06-28 09:33:00,
2013-06-28 04:42:00,66.0,64.0,-100.00,North,5,6.0,7.0,92,0.00,,,-99.99,,2013-06-28 09:42:00,
2013-06-28 04:52:00,66.0,64.0,-100.00,North,5,6.0,7.0,93,0.00,,,-99.99,,2013-06-28 09:52:00,
2013-06-28 05:33:00,65.0,64.0,-100.00,North,5,6.0,7.0,94,0.00,,,-99.99,,2013-06-28 10:33:00,
2013-06-28 06:02:00,65.0,63.0,-100.00,North,5,4.0,9.0,93,0.00,,,-99.99,,2013-06-28 11:02:00,
2013-06-28 06:34:00,64.0,63.0,-100.00,North,5,6.0,7.0,94,0.00,,,-99.99,,2013-06-28 11:34:00,
2013-06-28 06:43:00,65.0,63.0,-100.00,NNE,15,3.0,8.0,93,0.00,,,-99.99,,2013-06-28 11:43:00,
2013-06-28 06:53:00,65.0,63.0,-100.00,North,10,4.0,7.0,92,0.00,,,-99.99,,2013-06-28 11:53:00,
2013-06-28 07:01:00,66.0,63.0,-100.00,North,5,6.0,8.0,89,0.00,,,-99.99,,2013-06-28 12:01:00,
2013-06-28 07:12:00,67.0,63.0,-100.00,North,0,7.0,9.0,87,0.00,,,-99.99,,2013-06-28 12:12:00,
2013-06-28 07:22:00,67.0,63.0,-100.00,North,5,9.0,11.0,85,0.00,,,-99.99,,2013-06-28 12:22:00,
2013-06-28 07:33:00,68.0,63.0,-100.00,NNW,345,9.0,12.0,83,0.00,,,-99.99,,2013-06-28 12:33:00,
2013-06-28 07:43:00,69.0,63.0,-100.00,North,5,7.0,13.0,82,0.00,,,-99.99,,2013-06-28 12:43:00,
2013-06-28 07:52:00,70.0,64.0,-100.00,NNE,20,4.0,8.0,80,0.00,,,-99.99,,2013-06-28 12:52:00,
2013-06-28 08:11:00,71.0,64.0,-100.00,North,5,7.0,11.0,76,0.00,,,-99.99,,2013-06-28 13:11:00,
2013-06-28 08:33:00,71.0,63.0,-100.00,North,5,6.0,13.0,76,0.00,,,-99.99,,2013-06-28 13:33:00,
2013-06-28 08:43:00,73.0,64.0,-100.00,North,0,7.0,12.0,74,0.00,,,-99.99,,2013-06-28 13:43:00,
2013-06-28 08:53:00,74.0,64.0,-100.00,NNE,20,7.0,12.0,72,0.00,,,-99.99,,2013-06-28 13:53:00,
2013-06-28 09:11:00,74.0,63.0,-100.00,NNE,25,12.0,15.0,68,0.00,,,-99.99,,2013-06-28 14:11:00,
2013-06-28 09:33:00,75.0,63.0,-100.00,North,5,9.0,16.0,66,0.00,,,-99.99,,2013-06-28 14:33:00,
2013-06-28 09:44:00,76.0,63.0,-100.00,North,5,12.0,16.0,64,0.00,,,-99.99,,2013-06-28 14:44:00,
2013-06-28 10:24:00,78.0,63.0,-100.00,North,5,9.0,18.0,59,0.00,,,-99.99,,2013-06-28 15:24:00,
2013-06-28 10:34:00,78.0,63.0,-100.00,North,10,13.0,19.0,58,0.00,,,-99.99,,2013-06-28 15:34:00,
2013-06-28 10:43:00,79.0,62.0,-100.00,NNE,15,15.0,22.0,55,0.00,,,-99.99,,2013-06-28 15:43:00,
2013-06-28 11:01:00,79.0,62.0,-100.00,North,10,13.0,20.0,56,0.00,,,-99.99,,2013-06-28 16:01:00,
2013-06-28 11:11:00,80.0,63.0,-100.00,North,0,14.0,19.0,55,0.00,,,-99.99,,2013-06-28 16:11:00,
2013-06-28 11:24:00,80.0,62.0,-100.00,NNE,15,14.0,20.0,54,0.00,,,-99.99,,2013-06-28 16:24:00,
2013-06-28 11:33:00,81.0,62.0,-100.00,North,0,15.0,21.0,52,0.00,,,-99.99,,2013-06-28 16:33:00,
2013-06-28 11:44:00,80.0,61.0,-100.00,North,0,15.0,24.0,52,0.00,,,-99.99,,2013-06-28 16:44:00,
2013-06-28 11:53:00,81.0,62.0,-100.00,NNW,345,16.0,22.0,52,0.00,,,-99.99,,2013-06-28 16:53:00,
2013-06-28 12:02:00,82.0,62.0,-100.00,NNE,15,17.0,24.0,50,0.00,,,-99.99,,2013-06-28 17:02:00,
2013-06-28 12:11:00,82.0,60.0,-100.00,North,5,17.0,27.0,47,0.00,,,-99.99,,2013-06-28 17:11:00,
2013-06-28 12:22:00,82.0,60.0,-100.00,NNE,15,17.0,30.0,46,0.00,,,-99.99,,2013-06-28 17:22:00,
2013-06-28 12:33:00,81.0,59.0,-100.00,NNE,15,22.0,32.0,45,0.00,,,-99.99,,2013-06-28 17:33:00,
2013-06-28 12:44:00,81.0,59.0,-100.00,NNE,15,20.0,29.0,45,0.00,,,-99.99,,2013-06-28 17:44:00,
2013-06-28 12:52:00,82.0,59.0,-100.00,North,10,21.0,31.0,46,0.00,,,-99.99,,2013-06-28 17:52:00,
2013-06-28 13:02:00,82.0,60.0,-100.00,NNE,20,16.0,24.0,47,0.00,,,-99.99,,2013-06-28 18:02:00,
2013-06-28 13:11:00,82.0,59.0,-100.00,North,10,22.0,34.0,46,0.00,,,-99.99,,2013-06-28 18:11:00,
2013-06-28 13:22:00,82.0,60.0,-100.00,North,5,21.0,27.0,46,0.00,,,-99.99,,2013-06-28 18:22:00,
2013-06-28 13:33:00,83.0,61.0,-100.00,NNE,15,18.0,29.0,47,0.00,,,-99.99,,2013-06-28 18:33:00,
2013-06-28 13:43:00,82.0,60.0,-100.00,NNE,20,17.0,27.0,47,0.00,,,-99.99,,2013-06-28 18:43:00,
2013-06-28 13:52:00,82.0,60.0,-100.00,North,5,24.0,31.0,46,0.00,,,-99.99,,2013-06-28 18:52:00,
2013-06-28 14:01:00,83.0,60.0,-100.00,NNE,20,19.0,29.0,46,0.00,,,-99.99,,2013-06-28 19:01:00,
2013-06-28 14:11:00,84.0,60.0,-100.00,North,0,21.0,32.0,44,0.00,,,-99.99,,2013-06-28 19:11:00,
2013-06-28 14:33:00,83.0,58.0,-100.00,NNE,30,19.0,34.0,42,0.00,,,-99.99,,2013-06-28 19:33:00,
2013-06-28 15:11:00,85.0,59.0,-100.00,North,5,20.0,32.0,42,0.00,,,-99.99,,2013-06-28 20:11:00,
2013-06-28 15:33:00,84.0,59.0,-100.00,NNE,15,23.0,30.0,42,0.00,,,-99.99,,2013-06-28 20:33:00,
2013-06-28 15:43:00,84.0,58.0,-100.00,NNE,20,26.0,34.0,42,0.00,,,-99.99,,2013-06-28 20:43:00,
2013-06-28 15:52:00,84.0,59.0,-100.00,NNE,15,18.0,34.0,42,0.00,,,-99.99,,2013-06-28 20:52:00,
2013-06-28 16:01:00,84.0,59.0,-100.00,NNE,15,16.0,31.0,42,0.00,,,-99.99,,2013-06-28 21:01:00,
2013-06-28 16:11:00,84.0,59.0,-100.00,NNE,20,20.0,35.0,42,0.00,,,-99.99,,2013-06-28 21:11:00,
2013-06-28 16:23:00,84.0,58.0,-100.00,NNE,15,22.0,34.0,41,0.00,,,-99.99,,2013-06-28 21:23:00,
2013-06-28 16:34:00,84.0,58.0,-100.00,NNE,15,24.0,34.0,40,0.00,,,-99.99,,2013-06-28 21:34:00,
2013-06-28 16:43:00,84.0,58.0,-100.00,NNE,15,22.0,34.0,40,0.00,,,-99.99,,2013-06-28 21:43:00,
2013-06-28 17:11:00,84.0,56.0,-100.00,NNE,30,20.0,33.0,39,0.00,,,-99.99,,2013-06-28 22:11:00,
2013-06-28 17:34:00,84.0,57.0,-100.00,NNE,20,20.0,30.0,39,0.00,,,-99.99,,2013-06-28 22:34:00,
2013-06-28 17:43:00,84.0,56.0,-100.00,NNE,20,17.0,30.0,39,0.00,,,-99.99,,2013-06-28 22:43:00,
2013-06-28 18:01:00,84.0,56.0,-100.00,NNE,25,22.0,30.0,37,0.00,,,-99.99,,2013-06-28 23:01:00,
2013-06-28 18:11:00,83.0,55.0,-100.00,NE,45,14.0,33.0,37,0.00,,,-99.99,,2013-06-28 23:11:00,
2013-06-28 18:34:00,83.0,55.0,-100.00,NNE,30,15.0,29.0,37,0.00,,,-99.99,,2013-06-28 23:34:00,
2013-06-28 18:43:00,84.0,56.0,-100.00,NNE,25,14.0,27.0,38,0.00,,,-99.99,,2013-06-28 23:43:00,
2013-06-28 18:53:00,84.0,57.0,-100.00,NNE,25,16.0,24.0,39,0.00,,,-99.99,,2013-06-28 23:53:00,
2013-06-28 19:02:00,83.0,56.0,-100.00,NNE,25,15.0,25.0,39,0.00,,,-99.99,,2013-06-29 00:02:00,
2013-06-28 19:11:00,83.0,56.0,-100.00,NE,55,11.0,22.0,40,0.00,,,-99.99,,2013-06-29 00:11:00,
2013-06-28 19:22:00,82.0,56.0,-100.00,NNE,30,14.0,22.0,40,0.00,,,-99.99,,2013-06-29 00:22:00,
2013-06-28 19:33:00,82.0,56.0,-100.00,NE,35,13.0,25.0,40,0.00,,,-99.99,,2013-06-29 00:33:00,
2013-06-28 19:42:00,82.0,56.0,-100.00,NE,40,17.0,24.0,40,0.00,,,-99.99,,2013-06-29 00:42:00,
2013-06-28 19:52:00,82.0,56.0,-100.00,NE,40,11.0,26.0,40,0.00,,,-99.99,,2013-06-29 00:52:00,
2013-06-28 20:01:00,82.0,56.0,-100.00,NNE,30,14.0,27.0,40,0.00,,,-99.99,,2013-06-29 01:01:00,
2013-06-28 20:31:00,80.0,56.0,-100.00,NE,35,8.0,17.0,42,0.00,,,-99.99,,2013-06-29 01:31:00,
2013-06-28 20:42:00,80.0,55.0,-100.00,NNE,30,9.0,18.0,43,0.00,,,-99.99,,2013-06-29 01:42:00,
2013-06-28 20:51:00,79.0,55.0,-100.00,NNE,30,9.0,19.0,44,0.00,,,-99.99,,2013-06-29 01:51:00,
2013-06-28 21:31:00,76.0,55.0,-100.00,NE,40,6.0,12.0,48,0.00,,,-99.99,,2013-06-29 02:31:00,
2013-06-28 21:41:00,75.0,55.0,-100.00,NNE,20,6.0,9.0,51,0.00,,,-99.99,,2013-06-29 02:41:00,
2013-06-28 21:51:00,73.0,56.0,-100.00,NNE,30,6.0,9.0,53,0.00,,,-99.99,,2013-06-29 02:51:00,
2013-06-28 22:11:00,72.0,56.0,-100.00,NNE,30,5.0,9.0,57,0.00,,,-99.99,,2013-06-29 03:11:00,
2013-06-28 22:32:00,70.0,57.0,-100.00,NE,35,4.0,6.0,63,0.00,,,-99.99,,2013-06-29 03:32:00,
2013-06-28 22:41:00,69.0,57.0,-100.00,NNE,20,6.0,7.0,66,0.00,,,-99.99,,2013-06-29 03:41:00,
2013-06-28 22:51:00,68.0,57.0,-100.00,NNE,20,6.0,8.0,68,0.00,,,-99.99,,2013-06-29 03:51:00,
2013-06-28 23:31:00,67.0,58.0,-100.00,NNE,15,6.0,8.0,73,0.00,,,-99.99,,2013-06-29 04:31:00,
2013-06-28 23:51:00,66.0,59.0,-100.00,NNE,15,5.0,6.0,76,0.00,,,-99.99,,2013-06-29 04:51:00,